Location: Boneville
(33.4331°N, 82.4399°W)
Time: 13:47:33
(UTC+00:00)

Tiangong - Visible Passes

Search period start: 20 September 2024 00:00
Search period end: 30 September 2024 00:00
Orbit: 373 x 377 km, 41.5° (Epoch: 18 September)

Date Brightness Start Highest point End Pass type
(mag) Time Alt. Az. Time Alt. Az. Time Alt. Az.
20 Sep -0.1 01:14:27 10° WNW 01:16:54 23° NNW 01:16:54 23° NNW visible
21 Sep -0.7 00:11:11 10° W 00:14:03 33° NNW 00:16:56 10° NE visible
21 Sep 1.4 01:48:59 10° NW 01:49:08 11° NW 01:49:08 11° NW visible
22 Sep 0.0 00:45:41 10° WNW 00:48:05 20° N 00:49:13 17° NNE visible
23 Sep 0.5 01:19:53 10° NW 01:21:11 16° NNW 01:21:11 16° NNW visible
24 Sep 0.1 00:16:36 10° NW 00:18:51 18° N 00:21:03 10° NE visible
25 Sep -0.2 00:50:24 10° NW 00:52:46 20° N 00:52:50 20° N visible
25 Sep 0.0 23:47:07 10° NW 23:49:20 18° N 23:51:34 10° NE visible
26 Sep 0.7 01:23:39 10° NW 01:24:33 16° NW 01:24:33 16° NW visible
27 Sep -0.5 00:20:31 10° NW 00:23:04 23° NNE 00:24:14 18° NE visible
28 Sep -1.1 00:53:34 10° NW 00:55:53 38° NNW 00:55:53 38° NNW visible
28 Sep -0.9 23:50:19 10° NW 23:53:04 29° NNE 23:55:32 12° ENE visible
29 Sep 0.9 01:26:44 10° WNW 01:27:31 16° WNW 01:27:31 16° WNW visible
